Content
SEND FEEDBACK

Daily
Averages
Monthly
Summary
United States of America

SLOAN, NORTH CAROLINA


Home > North America > United States > North Carolina
Elevation: 5 feet     Latitude: 34 47N     Longitude: 077 49W

WEATHER
 
SELECT A DAY
Number of Records: 447,015;   Date Range: 1/1/95 - 11/22/14
 
SHARE

PRINT THIS DATA

[ ← Previous Day ]
WEATHER ALMANAC - FEBRUARY 13, 2013
[ Next Day → ]
[ °C ]   °F
Weather ElementAverageHighLow
Temperature50.7 °F57.2 °F (5:15 pm)46.4 °F (4:35 am)
Dewpoint47.5 °F53.6 °F (4:15 pm)44.6 °F (3:55 am)
Humidity89 %100 % (10:15 am)76 % (10:35 pm)
Barometer29.77 in29.99 in (12:35 am)29.65 in (2:15 pm)
Wind Speed7.2 mph15 mph (6:55 pm)
Wind Gust26.5 mph (7:55 pm)
Weather ElementAverage
Visibility7.8 mi
Wind DirectionSSE (158.5 °)

Weather ElementTotal
Precipitation0.57 in
Heating Degree Days13.2 (Base 65)
Growing Degree Days1.8 (Base 50)
Averaged from 71 records on February 13, 2013
WEATHER CONDITIONS BREAKOUT
WIND DIRECTION BREAKOUT
WEATHER BY HOUR - FEBRUARY 13, 2013
[ °C ]   °F
Local TimeTemperatureDewpointHumidityBarometerVisibilityWind DirectionWind SpeedGust SpeedPrecipitationEventsConditions
12:35 AM50.0 °F48.2 °F94 %29.99 in8.0 miCalm0.04 inClear
12:55 AM50.0 °F48.2 °F94 %29.97 in10.0 miCalm0.05 inScattered Clouds
1:15 AM48.2 °F46.4 °F93 %29.94 in9.0 miNE (40°)4.6 mph0.02 inScattered Clouds
1:35 AM50.0 °F48.2 °F94 %29.93 in10.0 miESE (110°)4.6 mph0.02 inPartly Cloudy
1:55 AM48.2 °F46.4 °F93 %29.92 in9.0 miENE (60°)6.9 mph0.03 inPartly Cloudy
2:15 AM50.0 °F46.4 °F87 %29.91 in10.0 miESE (110°)4.6 mph0.01 inScattered Clouds
2:35 AM48.2 °F46.4 °F93 %29.88 in10.0 miENE (70°)4.6 mph0.01 inOvercast
2:55 AM48.2 °F46.4 °F93 %29.89 in9.0 miCalm0.02 inOvercast
3:15 AM48.2 °F46.4 °F93 %29.87 in10.0 miENE (60°)3.5 mph0.01 inOvercast
3:35 AM48.2 °F46.4 °F93 %29.85 in6.0 miEast (100°)5.8 mph0.03 inOvercast
3:55 AM48.2 °F44.6 °F87 %29.85 in10.0 miNNE (30°)5.8 mph0.04 inOvercast
4:15 AM48.2 °F44.6 °F87 %29.85 in9.0 miNorth (360°)5.8 mph0.04 inOvercast
4:35 AM46.4 °F44.6 °F93 %29.83 in10.0 miNE (50°)8.1 mph0.06 inOvercast
4:55 AM46.4 °F44.6 °F93 %29.82 in10.0 miENE (60°)9.2 mph0.06 inOvercast
5:15 AM46.4 °F44.6 °F93 %29.82 in10.0 miNE (50°)8.1 mphOvercast
5:35 AM46.4 °F44.6 °F93 %29.83 in10.0 miNE (50°)8.1 mphOvercast
5:55 AM46.4 °F44.6 °F93 %29.83 in4.0 miEast (80°)5.8 mph0.01 inOvercast
6:15 AM46.4 °F44.6 °F93 %29.83 in3.0 miESE (110°)5.8 mph0.02 inOvercast
6:35 AM46.4 °F44.6 °F93 %29.84 in4.0 miESE (110°)4.6 mph0.03 inOvercast
6:55 AM46.4 °F44.6 °F93 %29.82 in5.0 miEast (80°)5.8 mph0.04 inOvercast
7:15 AM46.4 °F44.6 °F93 %29.81 in5.0 miNE (50°)5.8 mphOvercast
7:35 AM46.4 °F44.6 °F93 %29.81 in9.0 miNNE (20°)8.1 mphOvercast
7:55 AM46.4 °F44.6 °F93 %29.81 in2.5 miNNE (20°)5.8 mph0.01 inOvercast
8:15 AM46.4 °F44.6 °F93 %29.80 in5.0 miNorth (10°)6.9 mphOvercast
8:35 AM46.4 °F44.6 °F93 %29.80 in3.0 miNorth (350°)4.6 mphOvercast
8:55 AM46.4 °F44.6 °F93 %29.82 in2.5 miNorth (350°)5.8 mph0.01 inOvercast
9:15 AM46.4 °F44.6 °F93 %29.80 in3.0 miNorth (360°)6.9 mphOvercast
9:35 AM46.4 °F44.6 °F93 %29.78 in3.0 miNorth (10°)10.4 mphOvercast
9:55 AM46.4 °F44.6 °F93 %29.79 in5.0 miNNW (340°)5.8 mph0.01 inOvercast
10:15 AM46.4 °F46.4 °F100 %29.79 in5.0 miNorth (360°)3.5 mphOvercast
10:35 AM48.2 °F46.4 °F93 %29.79 in3.0 miNNE (20°)4.6 mphOvercast
10:55 AM48.2 °F46.4 °F93 %29.75 in5.0 miENE (70°)9.2 mphOvercast
11:15 AM48.2 °F46.4 °F93 %29.73 in10.0 miENE (60°)8.1 mphOvercast
11:35 AM48.2 °F46.4 °F93 %29.76 in10.0 miNorth (10°)3.5 mphOvercast
11:55 AM50.0 °F48.2 °F94 %29.73 in10.0 miENE (70°)5.8 mphOvercast
12:15 PM50.0 °F48.2 °F94 %29.74 in10.0 miCalmOvercast
12:35 PM50.0 °F48.2 °F94 %29.73 in10.0 miCalmOvercast
12:55 PM51.8 °F48.2 °F88 %29.70 in10.0 miCalmOvercast
1:15 PM51.8 °F48.2 °F88 %29.69 in10.0 miSSE (160°)3.5 mphOvercast
1:35 PM51.8 °F50.0 °F94 %29.71 in2.5 miCalmOvercast
1:55 PM53.6 °F50.0 °F88 %29.68 in4.0 miSouth (190°)3.5 mphOvercast
2:15 PM53.6 °F51.8 °F94 %29.65 in4.0 miSouth (170°)6.9 mphOvercast
2:35 PM53.6 °F51.8 °F94 %29.65 in3.0 miSouth (170°)11.5 mphOvercast
2:55 PM53.6 °F51.8 °F94 %29.68 in8.0 miWSW (250°)6.9 mphOvercast
3:15 PM53.6 °F51.8 °F94 %29.65 in5.0 miSouth (180°)9.2 mphOvercast
3:35 PM53.6 °F51.8 °F94 %29.67 in3.0 miSSW (210°)6.9 mphOvercast
3:55 PM53.6 °F51.8 °F94 %29.67 in3.0 miSW (230°)8.1 mphOvercast
4:15 PM55.4 °F53.6 °F94 %29.66 in5.0 miSW (230°)11.5 mphOvercast
4:35 PM55.4 °F53.6 °F94 %29.67 in8.0 miWSW (240°)10.4 mphOvercast
4:55 PM55.4 °F53.6 °F94 %29.68 in8.0 miWSW (240°)11.5 mph17.3 mphOvercast
5:15 PM57.2 °F53.6 °F88 %29.66 in10.0 miWSW (240°)10.4 mphOvercast
5:35 PM57.2 °F53.6 °F88 %29.68 in10.0 miWSW (250°)11.5 mph17.3 mphOvercast
5:55 PM57.2 °F53.6 °F88 %29.68 in10.0 miWSW (240°)11.5 mph17.3 mphMostly Cloudy
6:15 PM57.2 °F51.8 °F82 %29.69 in10.0 miSW (230°)13.8 mph18.4 mphMostly Cloudy
6:35 PM57.2 °F51.8 °F82 %29.67 in10.0 miSW (230°)10.4 mphPartly Cloudy
6:55 PM55.4 °F51.8 °F88 %29.71 in10.0 miWSW (250°)15.0 mph20.7 mphPartly Cloudy
7:15 PM55.4 °F50.0 °F82 %29.71 in10.0 miWest (270°)12.7 mph24.2 mphPartly Cloudy
7:35 PM55.4 °F48.2 °F77 %29.71 in10.0 miWSW (250°)10.4 mph17.3 mphPartly Cloudy
7:55 PM53.6 °F46.4 °F77 %29.71 in10.0 miWest (260°)11.5 mph26.5 mphPartly Cloudy
8:15 PM53.6 °F46.4 °F77 %29.72 in10.0 miWest (260°)12.7 mph23.0 mphPartly Cloudy
8:35 PM53.6 °F46.4 °F77 %29.74 in10.0 miWSW (250°)11.5 mph21.9 mphMostly Cloudy
8:55 PM53.6 °F46.4 °F77 %29.73 in10.0 miWest (260°)10.4 mph17.3 mphOvercast
9:15 PM53.6 °F46.4 °F77 %29.75 in10.0 miWSW (250°)13.8 mph20.7 mphOvercast
9:35 PM53.6 °F46.4 °F77 %29.77 in10.0 miWest (260°)13.8 mph21.9 mphOvercast
9:55 PM53.6 °F46.4 °F77 %29.77 in10.0 miWest (260°)6.9 mph18.4 mphOvercast
10:15 PM53.6 °F46.4 °F77 %29.78 in10.0 miWest (270°)9.2 mph17.3 mphOvercast
10:35 PM51.8 °F44.6 °F76 %29.78 in10.0 miWest (260°)10.4 mph17.3 mphOvercast
10:55 PM51.8 °F44.6 °F76 %29.80 in10.0 miWest (260°)6.9 mphOvercast
11:15 PM51.8 °F44.6 °F76 %29.79 in10.0 miWest (270°)8.1 mphMostly Cloudy
11:35 PM51.8 °F44.6 °F76 %29.79 in10.0 miWest (270°)8.1 mphMostly Cloudy
11:55 PM50.0 °F44.6 °F82 %29.81 in10.0 miWest (260°)5.8 mphMostly Cloudy
Hourly data recorded from KOAJ, located miles away from Sloan, North Carolina







STORIES FROM OUR PARTNERS